• Join FlightAware (Why Join?)
  • Login
  • US Flag GB Flag 
05:10 EDT


 

Airport Tracker/Info


-or-


 

Live Flight TrackerFlight Track Log ✈ UAL4588 ✈ 15-Apr-2013 ✈ KRIC - KEWR

Flight Track Log - Related Links

Times and Time Zones

All times are in EDT time to prevent confusion due to time zone crossing. See the UAL4588 flight status page for this flight to view local times or setup timezone preferences in your user account.

Time Position Orientation Groundspeed Altitude Reporting Facility
EDT Latitude Longitude Course Direction KTS MPH feet Rate Location/Type
13:15 37.5500 -77.3167 38° Northeast 171 197 1,900  Level Potomac TRACON
13:16 37.5833 -77.2667 50° Northeast 195 224 3,900 1,920 Climbing Potomac TRACON
13:16 37.6114 -77.2408 36° Northeast 218 251 4,800 1,980 Climbing Washington Center
13:17 37.6558 -77.1842 45° Northeast 256 295 6,900 1,860 Climbing Washington Center
13:18 37.7111 -77.1169 44° Northeast 268 308 8,600 1,380 Climbing Washington Center
13:19 37.7992 -77.0008 38° Northeast  Level FlightAware Approximate
13:19 37.7639 -77.0444 47° Northeast 279 321 9,700  Level Washington Center
13:20 37.8606 -76.9395 38° Northeast  Level FlightAware Approximate
13:20 37.8172 -76.9639 50° Northeast 285 328 11,500  Level Washington Center
13:21 37.8725 -76.8703 53° Northeast 306 352 12,600 1,080 Climbing Washington Center
13:22 37.9419 -76.7844 44° Northeast 325 374 13,700 1,080 Climbing Washington Center
13:23 38.0283 -76.7175 31° Northeast 345 397 14,800 1,020 Climbing Washington Center
13:24 38.1144 -76.6447 34° Northeast 361 415 15,800 960 Climbing Washington Center
13:25 38.1861 -76.5428 48° Northeast 371 427 16,800 600 Climbing Washington Center
13:26 38.2619 -76.4353 48° Northeast 381 438 17,000 60 Climbing Washington Center
13:27 38.3708 -76.3889 18° North 393 452 17,000  Level Washington Center
13:28 38.4814 -76.3661 North 388 447 17,000  Level Washington Center
13:29 38.5942 -76.3461 North 393 452 17,000  Level Washington Center
13:30 38.7025 -76.3258 North 393 452 17,000  Level Washington Center
13:31 38.8069 -76.2922 14° North 393 452 17,000  Level Washington Center
13:32 38.8992 -76.2158 33° Northeast 382 440 17,000 -60 Level Washington Center
13:33 38.9956 -76.1364 33° Northeast 389 448 16,900 -60 Descending Washington Center
13:34 39.0856 -76.0517 36° Northeast 395 455 16,900  Level Washington Center
13:35 39.1775 -75.9692 35° Northeast 400 460 16,900  Level Washington Center
13:36 39.2714 -75.8864 34° Northeast 405 466 16,900  Level Washington Center
13:37 39.3633 -75.8036 35° Northeast 405 466 16,900  Level Washington Center
13:38 39.4550 -75.7206 35° Northeast 405 466 17,000  Climbing Washington Center
13:39 39.5469 -75.6400 34° Northeast 405 466 17,000  Level Washington Center
13:40 39.6364 -75.5619 34° Northeast 405 466 17,000  Level Washington Center
13:41 39.7281 -75.4781 35° Northeast 405 466 17,000 -300 Level Washington Center
13:42 39.8175 -75.3969 35° Northeast 400 460 16,500 -780 Descending Washington Center
13:43 39.8903 -75.3292 36° Northeast 400 460 15,500 -1,320 Descending Washington Center
13:44 39.9839 -75.2394 36° Northeast 395 455 13,900 -1,740 Descending Washington Center
13:45 40.0606 -75.1469 43° Northeast 381 438 12,100 -1,380 Descending Washington Center
13:47 40.1500 -75.0333 44° Northeast 355 409 11,000 -960 Descending New York TRACON
13:48 40.2167 -74.9667 37° Northeast 304 350 10,100 -1,260 Descending New York TRACON
13:49 40.2667 -74.8833 52° Northeast 282 325 8,500 -1,560 Descending New York TRACON
13:49 40.3167 -74.8167 45° Northeast 269 310 7,200 -1,320 Descending New York TRACON
13:50 40.3667 -74.7500 45° Northeast 265 305 6,100 -1,080 Descending New York TRACON
13:51 40.4167 -74.6833 45° Northeast 278 320 5,100 -1,020 Descending New York TRACON
13:52 40.4833 -74.6333 30° Northeast 276 318 4,100 -720 Descending New York TRACON
13:53 40.5500 -74.5833 30° Northeast 264 304 3,700 -600 Descending New York TRACON
13:54 40.6000 -74.5167 45° Northeast 255 293 3,000 -420 Descending New York TRACON
13:55 40.6500 -74.4500 45° Northeast 252 290 3,000 -300 Level New York TRACON
13:56 40.7000 -74.3833 45° Northeast 229 264 2,400 -600 Descending New York TRACON